Location: Omaha
(41.2590°N, 95.9380°W)
Time: 07:44:52
(UTC-05:00)

ZACube-1 - Visible Passes

Search period start: 24 April 2018 00:00
Search period end: 04 May 2018 00:00
Orbit: 585 x 667 km, 97.6° (Epoch: 24 April)

Date Brightness Start Highest point End Pass type
(mag) Time Alt. Az. Time Alt. Az. Time Alt. Az.
24 Apr ? 20:50:30 10° S 20:54:36 48° W 20:58:49 10° NNW visible
25 Apr ? 21:10:12 10° SSW 21:13:55 29° W 21:17:45 10° NW visible
26 Apr ? 21:30:19 10° SW 21:33:19 18° W 21:36:23 10° NW visible
27 Apr ? 21:51:23 10° WSW 21:52:46 11° W 21:54:10 10° WNW visible
29 Apr ? 20:50:24 10° S 20:54:33 48° W 20:58:50 10° NNW visible
30 Apr ? 21:10:07 10° SSW 21:13:53 29° W 21:17:46 10° NW visible
01 May ? 21:30:14 10° SW 21:33:17 19° W 21:36:23 10° NW visible
02 May ? 21:51:18 10° WSW 21:52:44 11° W 21:54:11 10° WNW visible
